Regional Weather Roundup
Issued by NWS

Home | Current Version | Previous Version | Graphics & Text | Print | Product List | Glossary On
Versions: 1 2 3 4 5 6 7 8 9 10 11 12 13 14 15 16 17 18 19 20 21 22 23 24 25 26 27 28 29 30 31 32 33 34 35 36 37 38 39 40 41 42 43 44 45 46 47
000
ASUS45 KCYS 010310
RWRWY

WYOMING REGIONAL WEATHER ROUNDUP
NATIONAL WEATHER SERVICE CHEYENNE WY
900 PM MDT TUE SEP 30 2014

NOTE:  "FAIR" INDICATES FEW OR NO CLOUDS BELOW 12,000 FEET
WITH NO SIGNIFICANT WEATHER AND/OR OBSTRUCTIONS TO VISIBILITY.

WYZ001-010400-
YELLOWSTONE NATIONAL PARK

CITY           SKY/WX    TMP DP  RH WIND       PRES   REMARKS
LK YELLOWSTONE   N/A     36  34  92 CALM      29.95R
W YELLOWSTONE  NOT AVBL

$$
WYZ002>013-054>058-071-098>099-010400-
NORTHERN WYOMING

CITY           SKY/WX    TMP DP  RH WIND       PRES   REMARKS
JACKSON        MOCLDY    41  36  81 S8        29.93R
CODY           CLOUDY    50  45  81 NE9       29.81R
GREYBULL       CLOUDY    54  48  80 CALM      29.77R
WORLAND        CLOUDY    52  46  80 NE6       29.77R
SHERIDAN       CLOUDY    52  45  77 CALM      29.76R
BUFFALO        CLOUDY    50  43  77 N10       29.79R
GILLETTE       CLOUDY    50  45  83 W9        29.76R
HULETT         CLOUDY    52  46  82 W9        29.73
NEWCASTLE      FAIR      52  43  71 N8        29.75

$$
WYZ014>020-022>026-101>103-010400-
CENTRAL WYOMING

CITY           SKY/WX    TMP DP  RH WIND       PRES   REMARKS
BIG PINEY      PTCLDY    40  32  73 N5        29.97R
PINEDALE       CLOUDY    41  34  75 W13       29.96R
DUBOIS         FAIR      39  34  81 NW13      29.89R WCI  32
LANDER         PTCLDY    53  34  48 N9        29.81R
RIVERTON       MOCLDY    52  36  54 NW17      29.81S
CASPER         CLOUDY    50  38  63 SW6       29.81R
DOUGLAS        MOCLDY    50  42  74 N5        29.81R

$$
WYZ021-027>030-104>119-010400-
SOUTHERN WYOMING

CITY           SKY/WX    TMP DP  RH WIND       PRES   REMARKS
EVANSTON       MOCLDY    39  37  92 SW9       30.00S WCI  33
KEMMERER       DRIZZLE   37  36  93 SW8       29.99S WCI  31
FORT BRIDGER     N/A     42  41  95 W8        30.03R
ROCK SPRINGS   CLOUDY    42  39  89 SW13      29.97R
DIXON          FAIR      44  40  86 CALM      30.01S
RAWLINS        MOCLDY    44  40  85 W20       29.93R
SARATOGA       MOCLDY    43  37  81 CALM      29.97R
LARAMIE        CLOUDY    44  36  73 S13       29.94R
CHEYENNE       CLOUDY    52  36  54 W12G21    29.90R
TORRINGTON     CLOUDY    57  44  62 SW7       29.79R
PINE BLUFFS    CLOUDY    54  41  62 SW7       29.86S

$$



USA.gov is the U.S. government's official web portal to all federal, state and local government web resources and services.